Fort Worth Spinks, TX

1:09 PM CDT on March 27, 2017 (GMT -0500)
Fort Worth Spinks

Weather History for KFWS - November, 2012

Change the Weather History Date:

Wednesday, November 14, 2012

  Actual Average (KNFW) Record (KNFW)
Temperature  
Mean Temperature 48 °F -  
Max Temperature 62 °F 64 °F 84 °F (1999)
Min Temperature 33 °F 48 °F 32 °F (2000)
Degree Days  
Heating Degree Days 18    
Moisture  
Dew Point 29 °F    
Average Humidity 56    
Maximum Humidity 87    
Minimum Humidity 24    
Precipitation  
Precipitation 0.00 in - - ()
Sea Level Pressure  
Sea Level Pressure 30.36 in    
Wind  
Wind Speed 1 mph (SE)    
Max Wind Speed 7 mph    
Max Gust Speed -    
Visibility 10 miles    
Events      
Averages and records for this station are not official NWS values.
T = Trace of Precipitation, MM = Missing Value Source: NWS Daily Summary

Daily Weather History Graph

Daily Weather History Graph

Search for Another Location

Airport or City:

Trip Planner

Search our weather history database for the weather conditions in past years. The results will help you decide how hot, cold, wet, or windy it might be!

Date:

Astronomy

Nov. 14, 2012 Rise Set
Actual Time 6:58 AM CST 5:28 PM CST
Civil Twilight 6:32 AM CST 5:54 PM CST
Nautical Twilight 6:02 AM CST 6:24 PM CST
Astronomical Twilight 5:33 AM CST 6:53 PM CST
Moon 7:46 AM CST (11/14) 6:21 PM CST (11/14)
Length of Visible Light 11h 22m
Length of Day
10h 30m
New Moon, 1% of the Moon is Illuminated
Nov 14
New Moon
Nov 20
First Quarter
Nov 28
Full
Dec 6
Last Quarter
Dec 13
New

Hourly Weather History & Observations

Time (CST) Temp. Windchill Dew Point Humidity Pressure Visibility Wind Dir Wind Speed Gust Speed Precip Events Conditions
12:15 AM 50.0 °F - 28.4 °F 43% 30.39 in 10.0 mi Calm Calm - N/A   Overcast
12:35 AM 48.2 °F - 32.0 °F 54% 30.39 in 10.0 mi Calm Calm - N/A   Overcast
12:55 AM 48.2 °F - 30.2 °F 50% 30.39 in 10.0 mi Calm Calm - N/A   Overcast
1:15 AM 48.2 °F - 30.2 °F 50% 30.39 in 10.0 mi Calm Calm - N/A   Overcast
1:35 AM 46.4 °F - 30.2 °F 53% 30.40 in 10.0 mi Calm Calm - N/A   Overcast
1:55 AM 46.4 °F - 30.2 °F 53% 30.40 in 10.0 mi Calm Calm - N/A   Overcast
2:15 AM 44.6 °F - 32.0 °F 61% 30.40 in 10.0 mi Calm Calm - N/A   Overcast
2:35 AM 46.4 °F - 30.2 °F 53% 30.40 in 10.0 mi Calm Calm - N/A   Overcast
2:55 AM 44.6 °F - 32.0 °F 61% 30.40 in 10.0 mi Calm Calm - N/A   Overcast
3:15 AM 41.0 °F - 32.0 °F 70% 30.40 in 10.0 mi Calm Calm - N/A   Scattered Clouds
3:35 AM 37.4 °F - 32.0 °F 81% 30.40 in 10.0 mi Calm Calm - N/A   Clear
3:55 AM 37.4 °F - 32.0 °F 81% 30.39 in 10.0 mi Calm Calm - N/A   Clear
4:15 AM 37.4 °F - 32.0 °F 81% 30.39 in 10.0 mi Calm Calm - N/A   Clear
4:35 AM 35.6 °F - 30.2 °F 81% 30.39 in 10.0 mi Calm Calm - N/A   Clear
4:55 AM 33.8 °F - 30.2 °F 87% 30.39 in 10.0 mi Calm Calm - N/A   Clear
5:15 AM 33.8 °F - 30.2 °F 87% 30.39 in 10.0 mi Calm Calm - N/A   Clear
6:50 AM 33.8 °F - 30.2 °F 87% 30.41 in 10.0 mi Calm Calm - N/A   Clear
7:49 AM 33.8 °F - 30.2 °F 87% 30.42 in 10.0 mi Calm Calm - N/A   Clear
8:49 AM 46.4 °F - 33.8 °F 62% 30.44 in 10.0 mi Calm Calm - N/A   Clear
9:53 AM 55.4 °F - 26.6 °F 33% 30.45 in 10.0 mi SSW 5.8 mph - N/A   Clear
10:58 AM 57.2 °F - 24.8 °F 29% 30.44 in 10.0 mi Calm Calm - N/A   Clear
11:58 AM 57.2 °F - 24.8 °F 29% 30.41 in 10.0 mi SW 4.6 mph - N/A   Clear
12:57 PM 60.8 °F - 24.8 °F 25% 30.38 in 10.0 mi Calm Calm - N/A   Clear
1:50 PM 60.8 °F - 24.8 °F 25% 30.35 in 10.0 mi Calm Calm - N/A   Clear
2:56 PM 62.6 °F - 24.8 °F 24% 30.33 in 10.0 mi Calm Calm - N/A   Clear
3:48 PM 62.6 °F - 24.8 °F 24% 30.32 in 10.0 mi Calm Calm - N/A   Clear
4:46 PM 60.8 °F - 24.8 °F 25% 30.30 in 10.0 mi East 5.8 mph - N/A   Clear
5:46 PM 55.4 °F - 24.8 °F 31% 30.30 in 10.0 mi East 5.8 mph - N/A   Clear
6:46 PM 50.0 °F - 28.4 °F 43% 30.20 in 10.0 mi ESE 6.9 mph - N/A   Clear
6:55 PM 48.2 °F - 28.4 °F 46% 30.32 in 10.0 mi ESE 4.6 mph - N/A   Clear
7:15 PM 44.6 °F - 30.2 °F 57% 30.32 in 10.0 mi Calm Calm - N/A   Clear
7:35 PM 42.8 °F 41.1 °F 30.2 °F 61% 30.32 in 10.0 mi SSE 3.5 mph - N/A   Clear
7:55 PM 42.8 °F 41.1 °F 30.2 °F 61% 30.31 in 10.0 mi SE 3.5 mph - N/A   Clear
8:55 PM 44.6 °F - 30.2 °F 57% 30.32 in 10.0 mi Calm Calm - N/A   Clear
9:15 PM 42.8 °F 40.1 °F 28.4 °F 57% 30.32 in 10.0 mi SE 4.6 mph - N/A   Clear
9:35 PM 42.8 °F 40.1 °F 28.4 °F 57% 30.32 in 10.0 mi SSE 4.6 mph - N/A   Clear
9:55 PM 42.8 °F 39.3 °F 30.2 °F 61% 30.31 in 10.0 mi SSE 5.8 mph - N/A   Clear
10:15 PM 44.6 °F 41.4 °F 30.2 °F 57% 30.31 in 10.0 mi SSE 5.8 mph - N/A   Clear
10:35 PM 42.8 °F 39.3 °F 30.2 °F 61% 30.31 in 10.0 mi SSE 5.8 mph - N/A   Clear
10:55 PM 42.8 °F 40.1 °F 30.2 °F 61% 30.31 in 10.0 mi SSE 4.6 mph - N/A   Clear
11:15 PM 42.8 °F 41.1 °F 30.2 °F 61% 30.31 in 10.0 mi SSE 3.5 mph - N/A   Clear
11:35 PM 42.8 °F - 30.2 °F 61% 30.31 in 10.0 mi Calm Calm - N/A   Clear
11:55 PM 42.8 °F 41.1 °F 30.2 °F 61% 30.30 in 10.0 mi SSE 3.5 mph - N/A   Clear